| time (UTC) | temp F | wind direction | speed MPH | gust MPH | rain 1hr in | rain 24hr in | rain mn in | humidity % | barometer mb |
| 20260902072329 | 66 | 192 | 6.0 | 8.0 | 0.00 | 0.00 | 0.00 | 78 | 1017.2 |
| 20260902071604 | 66 | 192 | 5.0 | 7.0 | 0.00 | 0.00 | 0.00 | 78 | 1017.1 |
| 20260902071256 | 66 | 192 | 5.0 | 7.0 | 0.00 | 0.00 | 0.00 | 78 | 1017.1 |
| 20260902070536 | 66 | 192 | 4.0 | 6.0 | 0.00 | 0.00 | 0.00 | 78 | 1017.2 |
| 20260902065810 | 65 | 192 | 4.0 | 6.0 | 0.00 | 0.00 | 0.00 | 78 | 1017.2 |
| 20260902065507 | 65 | 192 | 4.0 | 5.0 | 0.00 | 0.00 | 0.00 | 78 | 1017.1 |
| 20260902064752 | 66 | 192 | 3.0 | 5.0 | 0.00 | 0.00 | 0.00 | 77 | 1017.1 |
| 20260902064439 | 66 | 192 | 3.0 | 5.0 | 0.00 | 0.00 | 0.00 | 77 | 1017.1 |
| 20260902064126 | 66 | 192 | 4.0 | 5.0 | 0.00 | 0.00 | 0.00 | 77 | 1017.1 |
| 20260902063827 | 66 | 192 | 4.0 | 5.0 | 0.00 | 0.00 | 0.00 | 77 | 1017.1 |
| 20260902063523 | 66 | 192 | 4.0 | 7.0 | 0.00 | 0.00 | 0.00 | 76 | 1017.3 |
| 20260902063212 | 67 | 192 | 4.0 | 7.0 | 0.00 | 0.00 | 0.00 | 76 | 1017.2 |
| 20260902062916 | 67 | 192 | 5.0 | 7.0 | 0.00 | 0.00 | 0.00 | 75 | 1017.2 |
| 20260902062612 | 67 | 192 | 5.0 | 7.0 | 0.00 | 0.00 | 0.00 | 76 | 1017.3 |
| 20260902062305 | 67 | 192 | 5.0 | 7.0 | 0.00 | 0.00 | 0.00 | 76 | 1017.1 |
| 20260902062004 | 66 | 192 | 5.0 | 7.0 | 0.00 | 0.00 | 0.00 | 77 | 1017.1 |
| 20260902061704 | 66 | 192 | 5.0 | 7.0 | 0.00 | 0.00 | 0.00 | 79 | 1017.0 |
| 20260902061353 | 65 | 192 | 4.0 | 6.0 | 0.00 | 0.00 | 0.00 | 80 | 1017.1 |
| 20260902061042 | 64 | 192 | 4.0 | 6.0 | 0.00 | 0.00 | 0.00 | 79 | 1017.1 |
| 20260902060741 | 64 | 192 | 4.0 | 6.0 | 0.00 | 0.00 | 0.00 | 77 | 1017.2 |
| 20260902055552 | 65 | 192 | 1.0 | 4.0 | 0.00 | 0.00 | 0.00 | 75 | 1017.2 |
| 20260902055244 | 66 | 192 | 0.0 | 2.0 | 0.00 | 0.00 | 0.00 | 75 | 1017.0 |
| 20260902054941 | 66 | 192 | 0.0 | 1.0 | 0.00 | 0.00 | 0.00 | 75 | 1017.0 |
| 20260902054643 | 66 | 192 | 0.0 | 1.0 | 0.00 | 0.00 | 0.00 | 74 | 1016.9 |
| 20260902053930 | 66 | 192 | 0.0 | 0.0 | 0.00 | 0.00 | 0.00 | 74 | 1016.8 |
| 20260902053632 | 67 | 192 | 0.0 | 1.0 | 0.00 | 0.00 | 0.00 | 74 | 1016.7 |
| 20260902053328 | 67 | 192 | 0.0 | 1.0 | 0.00 | 0.00 | 0.00 | 74 | 1016.7 |
| 20260902052611 | 67 | 192 | 0.0 | 1.0 | 0.00 | 0.00 | 0.00 | 75 | 1016.6 |
| 20260902051440 | 67 | 192 | 0.0 | 0.0 | 0.00 | 0.00 | 0.00 | 73 | 1016.7 |
| 20260902051130 | 67 | 192 | 0.0 | 0.0 | 0.00 | 0.00 | 0.00 | 73 | 1016.7 |
| 20260902050815 | 67 | 192 | 0.0 | 0.0 | 0.00 | 0.00 | 0.00 | 73 | 1016.6 |
| 20260902050515 | 67 | 192 | 0.0 | 1.0 | 0.00 | 0.00 | 0.00 | 73 | 1016.6 |
| 20260902050204 | 68 | 192 | 0.0 | 0.0 | 0.00 | 0.00 | 0.00 | 73 | 1016.6 |
| 20260902045858 | 68 | 192 | 0.0 | 0.0 | 0.00 | 0.00 | 0.00 | 72 | 1016.7 |
| 20260902045601 | 68 | 192 | 1.0 | 3.0 | 0.00 | 0.00 | 0.00 | 72 | 1016.6 |
| 20260902045300 | 68 | 192 | 1.0 | 3.0 | 0.00 | 0.00 | 0.00 | 72 | 1016.6 |
| 20260902044952 | 68 | 192 | 1.0 | 3.0 | 0.00 | 0.00 | 0.00 | 73 | 1016.6 |
| 20260902044648 | 68 | 192 | 1.0 | 2.0 | 0.00 | 0.00 | 0.00 | 73 | 1016.7 |
| 20260902044342 | 68 | 192 | 1.0 | 2.0 | 0.00 | 0.00 | 0.00 | 73 | 1016.7 |
| 20260902044044 | 68 | 192 | 1.0 | 2.0 | 0.00 | 0.00 | 0.00 | 73 | 1016.7 |
| 20260902043741 | 68 | 192 | 1.0 | 3.0 | 0.00 | 0.00 | 0.00 | 72 | 1016.8 |
| 20260902043437 | 68 | 192 | 1.0 | 3.0 | 0.00 | 0.00 | 0.00 | 72 | 1016.9 |
| 20260902043131 | 68 | 192 | 1.0 | 3.0 | 0.00 | 0.00 | 0.00 | 72 | 1016.9 |
| 20260902042819 | 68 | 192 | 1.0 | 3.0 | 0.00 | 0.00 | 0.00 | 72 | 1016.9 |
| 20260902042101 | 69 | 192 | 1.0 | 3.0 | 0.00 | 0.00 | 0.00 | 71 | 1016.9 |
| 20260902041752 | 69 | 192 | 1.0 | 5.0 | 0.00 | 0.00 | 0.00 | 71 | 1017.0 |
| 20260902041030 | 70 | 192 | 2.0 | 5.0 | 0.00 | 0.00 | 0.00 | 70 | 1017.1 |
| 20260902040254 | 70 | 192 | 4.0 | 6.0 | 0.00 | 0.00 | 0.00 | 70 | 1017.3 |
| 20260902035536 | 70 | 192 | 4.0 | 7.0 | 0.00 | 0.00 | 0.00 | 71 | 1017.4 |
| 20260902035232 | 70 | 192 | 3.0 | 7.0 | 0.00 | 0.00 | 0.00 | 71 | 1017.3 |
| 20260902034921 | 70 | 192 | 3.0 | 7.0 | 0.00 | 0.00 | 0.00 | 71 | 1017.4 |
| 20260902034622 | 70 | 192 | 4.0 | 7.0 | 0.00 | 0.00 | 0.00 | 71 | 1017.4 |
| 20260902033902 | 69 | 192 | 4.0 | 7.0 | 0.00 | 0.00 | 0.00 | 72 | 1017.5 |
| 20260902033124 | 70 | 192 | 3.0 | 6.0 | 0.00 | 0.00 | 0.00 | 72 | 1017.6 |
| 20260902032826 | 70 | 192 | 2.0 | 6.0 | 0.00 | 0.00 | 0.00 | 70 | 1017.5 |
| 20260902032524 | 70 | 192 | 2.0 | 5.0 | 0.00 | 0.00 | 0.00 | 69 | 1017.3 |
| 20260902032210 | 71 | 192 | 1.0 | 3.0 | 0.00 | 0.00 | 0.00 | 68 | 1016.8 |
| 20260902031908 | 71 | 192 | 1.0 | 3.0 | 0.00 | 0.00 | 0.00 | 68 | 1016.8 |
| 20260902031610 | 71 | 192 | 1.0 | 5.0 | 0.00 | 0.00 | 0.00 | 67 | 1016.8 |
| 20260902031304 | 71 | 192 | 1.0 | 5.0 | 0.00 | 0.00 | 0.00 | 66 | 1016.8 |
| 20260902031007 | 72 | 192 | 1.0 | 5.0 | 0.00 | 0.00 | 0.00 | 65 | 1016.7 |
| 20260902030710 | 72 | 192 | 1.0 | 5.0 | 0.00 | 0.00 | 0.00 | 65 | 1016.6 |
| 20260902030404 | 72 | 192 | 3.0 | 10.0 | 0.00 | 0.00 | 0.00 | 65 | 1016.5 |
| 20260902030051 | 72 | 192 | 5.0 | 10.0 | 0.00 | 0.00 | 0.00 | 64 | 1016.6 |
| 20260902025745 | 73 | 192 | 6.0 | 10.0 | 0.00 | 0.00 | 0.00 | 64 | 1016.6 |
| 20260902025449 | 73 | 192 | 6.0 | 10.0 | 0.00 | 0.00 | 0.00 | 63 | 1016.6 |
| 20260902025153 | 73 | 192 | 7.0 | 10.0 | 0.00 | 0.00 | 0.00 | 63 | 1016.6 |
| 20260902024852 | 73 | 191 | 6.0 | 10.0 | 0.00 | 0.00 | 0.00 | 62 | 1016.6 |
| 20260902024550 | 74 | 190 | 6.0 | 9.0 | 0.00 | 0.00 | 0.00 | 61 | 1016.6 |
| 20260902024249 | 74 | 190 | 5.0 | 8.0 | 0.00 | 0.00 | 0.00 | 61 | 1016.5 |
| 20260902023939 | 74 | 189 | 5.0 | 8.0 | 0.00 | 0.00 | 0.00 | 60 | 1016.5 |
| 20260902023637 | 74 | 189 | 5.0 | 7.0 | 0.00 | 0.00 | 0.00 | 60 | 1016.5 |
| 20260902022449 | 73 | 189 | 5.0 | 8.0 | 0.00 | 0.00 | 0.00 | 60 | 1016.3 |
| 20260902022139 | 74 | 188 | 5.0 | 8.0 | 0.00 | 0.00 | 0.00 | 59 | 1016.2 |
| 20260902021827 | 74 | 189 | 5.0 | 11.0 | 0.00 | 0.00 | 0.00 | 59 | 1016.1 |
| 20260902021530 | 74 | 188 | 6.0 | 11.0 | 0.00 | 0.00 | 0.00 | 59 | 1016.2 |
| 20260902021217 | 74 | 189 | 5.0 | 11.0 | 0.00 | 0.00 | 0.00 | 58 | 1016.0 |
| 20260902020918 | 74 | 189 | 6.0 | 11.0 | 0.00 | 0.00 | 0.00 | 58 | 1016.1 |
| 20260902020611 | 75 | 189 | 7.0 | 11.0 | 0.00 | 0.00 | 0.00 | 57 | 1016.0 |
| 20260902020301 | 75 | 189 | 7.0 | 11.0 | 0.00 | 0.00 | 0.00 | 57 | 1015.9 |
| 20260902015948 | 75 | 188 | 7.0 | 11.0 | 0.00 | 0.00 | 0.00 | 56 | 1015.8 |
| 20260902015642 | 75 | 186 | 7.0 | 10.0 | 0.00 | 0.00 | 0.00 | 56 | 1015.8 |
| 20260902015341 | 75 | 186 | 7.0 | 10.0 | 0.00 | 0.00 | 0.00 | 55 | 1015.8 |
| 20260902014624 | 75 | 184 | 7.0 | 10.0 | 0.00 | 0.00 | 0.00 | 56 | 1015.6 |
| 20260902014313 | 76 | 184 | 7.0 | 10.0 | 0.00 | 0.00 | 0.00 | 56 | 1015.7 |
| 20260902014015 | 76 | 184 | 7.0 | 10.0 | 0.00 | 0.00 | 0.00 | 56 | 1015.6 |
| 20260902013708 | 76 | 184 | 7.0 | 12.0 | 0.00 | 0.00 | 0.00 | 56 | 1015.7 |
| 20260902013404 | 76 | 184 | 7.0 | 12.0 | 0.00 | 0.00 | 0.00 | 57 | 1015.7 |
| 20260902013105 | 76 | 184 | 7.0 | 12.0 | 0.00 | 0.00 | 0.00 | 57 | 1015.6 |
| 20260902012752 | 76 | 184 | 8.0 | 15.0 | 0.00 | 0.00 | 0.00 | 57 | 1015.7 |
| 20260902012034 | 77 | 184 | 9.0 | 15.0 | 0.00 | 0.00 | 0.00 | 56 | 1015.7 |
| 20260902011302 | 77 | 185 | 10.0 | 17.0 | 0.00 | 0.00 | 0.00 | 56 | 1015.8 |
| 20260902011002 | 77 | 184 | 9.0 | 17.0 | 0.00 | 0.00 | 0.00 | 56 | 1015.8 |
| 20260902010702 | 78 | 182 | 10.0 | 17.0 | 0.00 | 0.00 | 0.00 | 56 | 1015.8 |
| 20260902010350 | 78 | 182 | 11.0 | 17.0 | 0.00 | 0.00 | 0.00 | 56 | 1016.0 |
| 20260902010039 | 78 | 184 | 11.0 | 17.0 | 0.00 | 0.00 | 0.00 | 56 | 1016.0 |
| 20260902005729 | 78 | 185 | 11.0 | 15.0 | 0.00 | 0.00 | 0.00 | 56 | 1015.9 |
| 20260902005002 | 79 | 191 | 11.0 | 19.0 | 0.00 | 0.00 | 0.00 | 56 | 1016.0 |
| 20260902004702 | 79 | 193 | 11.0 | 19.0 | 0.00 | 0.00 | 0.00 | 57 | 1015.9 |
| 20260902004405 | 79 | 198 | 12.0 | 19.0 | 0.00 | 0.00 | 0.00 | 58 | 1016.1 |
| 20260902004057 | 79 | 207 | 12.0 | 19.0 | 0.00 | 0.00 | 0.00 | 58 | 1016.2 |
| 20260902003751 | 79 | 195 | 13.0 | 20.0 | 0.00 | 0.00 | 0.00 | 58 | 1016.3 |
| 20260902003439 | 80 | 223 | 14.0 | 20.0 | 0.00 | 0.00 | 0.00 | 58 | 1016.5 |
| 20260902003141 | 80 | 215 | 14.0 | 20.0 | 0.00 | 0.00 | 0.00 | 56 | 1016.4 |
| 20260902002833 | 80 | 217 | 14.0 | 20.0 | 0.00 | 0.00 | 0.00 | 55 | 1016.4 |
| 20260902002530 | 81 | 225 | 13.0 | 20.0 | 0.00 | 0.00 | 0.00 | 53 | 1016.3 |
| 20260902001810 | 81 | 223 | 11.0 | 17.0 | 0.00 | 0.00 | 0.00 | 53 | 1016.3 |
| 20260902001512 | 81 | 210 | 11.0 | 15.0 | 0.00 | 0.00 | 0.00 | 53 | 1016.3 |
| 20260902000333 | 80 | 216 | 11.0 | 20.0 | 0.00 | 0.00 | 0.00 | 53 | 1016.2 |
| 20260901235558 | 79 | 212 | 13.0 | 20.0 | 0.00 | 0.00 | 0.00 | 56 | 1016.2 |
| 20260901235307 | 79 | 213 | 14.0 | 20.0 | 0.00 | 0.00 | 0.00 | 57 | 1016.2 |
| 20260901235000 | 79 | 213 | 14.0 | 19.0 | 0.00 | 0.00 | 0.00 | 57 | 1016.1 |
| 20260901234704 | 79 | 211 | 12.0 | 19.0 | 0.00 | 0.00 | 0.00 | 56 | 1015.9 |
| 20260901234357 | 78 | 207 | 10.0 | 19.0 | 0.00 | 0.00 | 0.00 | 57 | 1015.9 |
| 20260901233628 | 76 | 210 | 12.0 | 29.0 | 0.00 | 0.00 | 0.00 | 62 | 1016.2 |
| 20260901233322 | 76 | 211 | 14.0 | 29.0 | 0.00 | 0.00 | 0.00 | 62 | 1016.1 |
| 20260901233025 | 76 | 211 | 16.0 | 29.0 | 0.00 | 0.00 | 0.00 | 64 | 1016.2 |
| 20260901232711 | 77 | 211 | 16.0 | 32.0 | 0.00 | 0.00 | 0.00 | 63 | 1016.3 |
| 20260901232405 | 77 | 227 | 16.0 | 32.0 | 0.00 | 0.00 | 0.00 | 61 | 1016.4 |
| 20260901232056 | 78 | 220 | 16.0 | 32.0 | 0.00 | 0.00 | 0.00 | 62 | 1016.4 |
| 20260901231751 | 79 | 264 | 17.0 | 32.0 | 0.00 | 0.00 | 0.00 | 58 | 1016.3 |
| 20260901231448 | 83 | 246 | 15.0 | 32.0 | 0.00 | 0.00 | 0.00 | 51 | 1016.2 |
| 20260901231141 | 88 | 227 | 13.0 | 32.0 | 0.00 | 0.00 | 0.00 | 42 | 1016.1 |
| 20260901230421 | 91 | 206 | 11.0 | 15.0 | 0.00 | 0.00 | 0.00 | 33 | 1015.5 |
| 20260901230108 | 92 | 212 | 11.0 | 15.0 | 0.00 | 0.00 | 0.00 | 32 | 1015.4 |
| 20260901225806 | 92 | 211 | 10.0 | 15.0 | 0.00 | 0.00 | 0.00 | 32 | 1015.4 |
| 20260901225500 | 92 | 210 | 9.0 | 15.0 | 0.00 | 0.00 | 0.00 | 33 | 1015.4 |
| 20260901225149 | 92 | 209 | 9.0 | 15.0 | 0.00 | 0.00 | 0.00 | 33 | 1015.3 |
| 20260901224842 | 92 | 207 | 10.0 | 18.0 | 0.00 | 0.00 | 0.00 | 32 | 1015.1 |
| 20260901224536 | 92 | 201 | 11.0 | 18.0 | 0.00 | 0.00 | 0.00 | 32 | 1015.0 |
| 20260901224239 | 92 | 205 | 11.0 | 18.0 | 0.00 | 0.00 | 0.00 | 32 | 1015.1 |
| 20260901223939 | 92 | 201 | 11.0 | 18.0 | 0.00 | 0.00 | 0.00 | 32 | 1015.1 |
| 20260901223635 | 92 | 213 | 11.0 | 18.0 | 0.00 | 0.00 | 0.00 | 33 | 1015.1 |
| 20260901222908 | 93 | 200 | 9.0 | 18.0 | 0.00 | 0.00 | 0.00 | 32 | 1015.2 |
| 20260901222555 | 93 | 214 | 10.0 | 18.0 | 0.00 | 0.00 | 0.00 | 32 | 1015.3 |
| 20260901222247 | 93 | 217 | 10.0 | 18.0 | 0.00 | 0.00 | 0.00 | 32 | 1015.4 |
| 20260901221943 | 93 | 220 | 10.0 | 18.0 | 0.00 | 0.00 | 0.00 | 32 | 1015.4 |
| 20260901221644 | 93 | 211 | 9.0 | 13.0 | 0.00 | 0.00 | 0.00 | 31 | 1015.4 |
| 20260901221332 | 93 | 209 | 9.0 | 13.0 | 0.00 | 0.00 | 0.00 | 32 | 1015.5 |
| 20260901221020 | 93 | 192 | 10.0 | 18.0 | 0.00 | 0.00 | 0.00 | 32 | 1015.5 |
| 20260901220715 | 93 | 194 | 11.0 | 18.0 | 0.00 | 0.00 | 0.00 | 31 | 1015.5 |
| 20260901220408 | 93 | 202 | 11.0 | 18.0 | 0.00 | 0.00 | 0.00 | 31 | 1015.5 |
| 20260901220111 | 93 | 195 | 11.0 | 21.0 | 0.00 | 0.00 | 0.00 | 31 | 1015.6 |
| 20260901215351 | 93 | 186 | 9.0 | 21.0 | 0.00 | 0.00 | 0.00 | 31 | 1015.5 |
| 20260901215046 | 93 | 190 | 11.0 | 21.0 | 0.00 | 0.00 | 0.00 | 31 | 1015.5 |
| 20260901214315 | 94 | 208 | 11.0 | 21.0 | 0.00 | 0.00 | 0.00 | 30 | 1015.7 |
| 20260901214009 | 94 | 205 | 10.0 | 18.0 | 0.00 | 0.00 | 0.00 | 30 | 1015.7 |
| 20260901213706 | 94 | 202 | 10.0 | 18.0 | 0.00 | 0.00 | 0.00 | 30 | 1015.7 |
| 20260901213357 | 94 | 205 | 9.0 | 24.0 | 0.00 | 0.00 | 0.00 | 30 | 1015.7 |
| 20260901213045 | 94 | 231 | 9.0 | 24.0 | 0.00 | 0.00 | 0.00 | 31 | 1015.7 |
| 20260901212314 | 96 | 202 | 10.0 | 24.0 | 0.00 | 0.00 | 0.00 | 29 | 1015.7 |
| 20260901212012 | 95 | 206 | 10.0 | 24.0 | 0.00 | 0.00 | 0.00 | 31 | 1015.7 |
| 20260901211708 | 95 | 200 | 10.0 | 24.0 | 0.00 | 0.00 | 0.00 | 29 | 1015.7 |
| 20260901211409 | 96 | 187 | 10.0 | 19.0 | 0.00 | 0.00 | 0.00 | 30 | 1015.8 |
| 20260901211059 | 96 | 182 | 11.0 | 19.0 | 0.00 | 0.00 | 0.00 | 29 | 1015.7 |
| 20260901210802 | 97 | 206 | 11.0 | 19.0 | 0.00 | 0.00 | 0.00 | 29 | 1015.8 |
| 20260901210501 | 97 | 202 | 11.0 | 22.0 | 0.00 | 0.00 | 0.00 | 29 | 1015.9 |
| 20260901210202 | 97 | 232 | 11.0 | 22.0 | 0.00 | 0.00 | 0.00 | 32 | 1015.8 |
| 20260901205449 | 96 | 195 | 11.0 | 22.0 | 0.00 | 0.00 | 0.00 | 29 | 1015.8 |
| 20260901205141 | 96 | 219 | 11.0 | 22.0 | 0.00 | 0.00 | 0.00 | 30 | 1015.8 |
| 20260901204840 | 95 | 205 | 10.0 | 22.0 | 0.00 | 0.00 | 0.00 | 30 | 1015.9 |
| 20260901204543 | 95 | 185 | 9.0 | 20.0 | 0.00 | 0.00 | 0.00 | 31 | 1015.9 |
| 20260901204237 | 95 | 193 | 7.0 | 20.0 | 0.00 | 0.00 | 0.00 | 32 | 1016.0 |
| 20260901203934 | 94 | 175 | 7.0 | 21.0 | 0.00 | 0.00 | 0.00 | 33 | 1016.0 |
| 20260901203629 | 94 | 182 | 8.0 | 21.0 | 0.00 | 0.00 | 0.00 | 32 | 1016.0 |
| 20260901203326 | 94 | 159 | 10.0 | 21.0 | 0.00 | 0.00 | 0.00 | 32 | 1016.1 |
| 20260901202602 | 95 | 215 | 9.0 | 21.0 | 0.00 | 0.00 | 0.00 | 31 | 1016.3 |
| 20260901202256 | 94 | 187 | 9.0 | 21.0 | 0.00 | 0.00 | 0.00 | 31 | 1016.3 |
| 20260901201958 | 94 | 184 | 9.0 | 21.0 | 0.00 | 0.00 | 0.00 | 31 | 1016.5 |
| 20260901201649 | 94 | 196 | 9.0 | 21.0 | 0.00 | 0.00 | 0.00 | 31 | 1016.4 |
| 20260901201335 | 94 | 205 | 9.0 | 21.0 | 0.00 | 0.00 | 0.00 | 31 | 1016.4 |
| 20260901201022 | 94 | 184 | 10.0 | 21.0 | 0.00 | 0.00 | 0.00 | 31 | 1016.5 |
| 20260901200719 | 94 | 171 | 12.0 | 21.0 | 0.00 | 0.00 | 0.00 | 31 | 1016.6 |
| 20260901200406 | 95 | 190 | 11.0 | 21.0 | 0.00 | 0.00 | 0.00 | 31 | 1016.7 |
| 20260901200106 | 94 | 196 | 11.0 | 21.0 | 0.00 | 0.00 | 0.00 | 31 | 1016.7 |
| 20260901195752 | 95 | 207 | 10.0 | 19.0 | 0.00 | 0.00 | 0.00 | 31 | 1016.8 |
| 20260901195449 | 95 | 201 | 11.0 | 19.0 | 0.00 | 0.00 | 0.00 | 30 | 1016.8 |
| 20260901195145 | 95 | 209 | 11.0 | 19.0 | 0.00 | 0.00 | 0.00 | 30 | 1016.8 |
| 20260901194841 | 94 | 225 | 10.0 | 19.0 | 0.00 | 0.00 | 0.00 | 30 | 1016.9 |
| 20260901194543 | 94 | 215 | 9.0 | 19.0 | 0.00 | 0.00 | 0.00 | 29 | 1017.0 |
| 20260901194239 | 94 | 232 | 8.0 | 19.0 | 0.00 | 0.00 | 0.00 | 30 | 1017.0 |
| 20260901193514 | 95 | 222 | 13.0 | 20.0 | 0.00 | 0.00 | 0.00 | 28 | 1017.3 |
| 20260901193209 | 95 | 235 | 13.0 | 20.0 | 0.00 | 0.00 | 0.00 | 29 | 1017.3 |
| 20260901191554 | 93 | 219 | 11.0 | 23.0 | 0.00 | 0.00 | 0.00 | 29 | 1017.3 |
| 20260901191242 | 92 | 205 | 9.0 | 23.0 | 0.00 | 0.00 | 0.00 | 31 | 1017.4 |
| 20260901190933 | 92 | 176 | 9.0 | 23.0 | 0.00 | 0.00 | 0.00 | 31 | 1017.4 |
| 20260901190623 | 92 | 191 | 11.0 | 24.0 | 0.00 | 0.00 | 0.00 | 30 | 1017.4 |
| 20260901190321 | 93 | 169 | 12.0 | 24.0 | 0.00 | 0.00 | 0.00 | 30 | 1017.4 |
| 20260901185606 | 94 | 193 | 14.0 | 24.0 | 0.00 | 0.00 | 0.00 | 29 | 1017.5 |
| 20260901185306 | 94 | 208 | 15.0 | 24.0 | 0.00 | 0.00 | 0.00 | 29 | 1017.6 |
| 20260901184952 | 94 | 183 | 14.0 | 24.0 | 0.00 | 0.00 | 0.00 | 29 | 1017.7 |
| 20260901184641 | 93 | 179 | 12.0 | 22.0 | 0.00 | 0.00 | 0.00 | 29 | 1017.6 |
| 20260901184342 | 93 | 184 | 12.0 | 22.0 | 0.00 | 0.00 | 0.00 | 31 | 1017.7 |
| 20260901184038 | 94 | 184 | 12.0 | 22.0 | 0.00 | 0.00 | 0.00 | 29 | 1017.6 |
| 20260901183730 | 94 | 186 | 13.0 | 24.0 | 0.00 | 0.00 | 0.00 | 28 | 1017.7 |
| 20260901183429 | 94 | 201 | 14.0 | 24.0 | 0.00 | 0.00 | 0.00 | 30 | 1017.8 |
| 20260901182703 | 94 | 213 | 11.0 | 24.0 | 0.00 | 0.00 | 0.00 | 29 | 1017.9 |
| 20260901182353 | 94 | 184 | 10.0 | 24.0 | 0.00 | 0.00 | 0.00 | 30 | 1017.9 |
| 20260901182051 | 94 | 188 | 11.0 | 24.0 | 0.00 | 0.00 | 0.00 | 30 | 1018.0 |
| 20260901181739 | 93 | 182 | 11.0 | 23.0 | 0.00 | 0.00 | 0.00 | 30 | 1018.0 |
| 20260901181431 | 94 | 183 | 13.0 | 23.0 | 0.00 | 0.00 | 0.00 | 29 | 1018.0 |
| 20260901181134 | 94 | 192 | 14.0 | 23.0 | 0.00 | 0.00 | 0.00 | 29 | 1018.1 |
| 20260901180823 | 94 | 211 | 15.0 | 23.0 | 0.00 | 0.00 | 0.00 | 29 | 1018.0 |
| 20260901180519 | 94 | 181 | 14.0 | 23.0 | 0.00 | 0.00 | 0.00 | 29 | 1018.0 |
| 20260901175746 | 93 | 213 | 13.0 | 21.0 | 0.00 | 0.00 | 0.00 | 31 | 1018.1 |
| 20260901175443 | 93 | 179 | 13.0 | 21.0 | 0.00 | 0.00 | 0.00 | 30 | 1018.1 |
| 20260901174721 | 94 | 190 | 14.0 | 25.0 | 0.00 | 0.00 | 0.00 | 30 | 1018.2 |
| 20260901174002 | 94 | 188 | 15.0 | 25.0 | 0.00 | 0.00 | 0.00 | 28 | 1018.2 |
| 20260901173652 | 94 | 209 | 14.0 | 25.0 | 0.00 | 0.00 | 0.00 | 27 | 1018.3 |
| 20260901173353 | 94 | 196 | 14.0 | 25.0 | 0.00 | 0.00 | 0.00 | 29 | 1018.3 |
| 20260901173045 | 94 | 202 | 14.0 | 25.0 | 0.00 | 0.00 | 0.00 | 28 | 1018.3 |
| 20260901172745 | 94 | 188 | 15.0 | 25.0 | 0.00 | 0.00 | 0.00 | 30 | 1018.4 |
| 20260901172440 | 94 | 186 | 14.0 | 25.0 | 0.00 | 0.00 | 0.00 | 28 | 1018.5 |
| 20260901172143 | 94 | 223 | 13.0 | 23.0 | 0.00 | 0.00 | 0.00 | 29 | 1018.5 |
| 20260901171845 | 93 | 200 | 13.0 | 23.0 | 0.00 | 0.00 | 0.00 | 31 | 1018.5 |
| 20260901171542 | 93 | 225 | 12.0 | 20.0 | 0.00 | 0.00 | 0.00 | 32 | 1018.4 |
| 20260901171237 | 92 | 218 | 12.0 | 20.0 | 0.00 | 0.00 | 0.00 | 33 | 1018.6 |
| 20260901170933 | 92 | 233 | 13.0 | 20.0 | 0.00 | 0.00 | 0.00 | 34 | 1018.5 |
| 20260901170214 | 92 | 208 | 12.0 | 20.0 | 0.00 | 0.00 | 0.00 | 35 | 1018.7 |
| 20260901165909 | 92 | 203 | 11.0 | 19.0 | 0.00 | 0.00 | 0.00 | 34 | 1018.6 |
| 20260901165556 | 91 | 213 | 11.0 | 18.0 | 0.00 | 0.00 | 0.00 | 37 | 1018.6 |
| 20260901165253 | 91 | 219 | 11.0 | 18.0 | 0.00 | 0.00 | 0.00 | 37 | 1018.7 |
| 20260901164938 | 90 | 219 | 11.0 | 18.0 | 0.00 | 0.00 | 0.00 | 39 | 1018.7 |
| 20260901164227 | 89 | 215 | 9.0 | 18.0 | 0.00 | 0.00 | 0.00 | 40 | 1018.8 |
| 20260901163450 | 88 | 221 | 8.0 | 15.0 | 0.00 | 0.00 | 0.00 | 42 | 1018.8 |
| 20260901162256 | 87 | 226 | 9.0 | 14.0 | 0.00 | 0.00 | 0.00 | 45 | 1019.0 |
| 20260901161534 | 86 | 226 | 7.0 | 12.0 | 0.00 | 0.00 | 0.00 | 46 | 1019.0 |
| 20260901160812 | 85 | 224 | 7.0 | 12.0 | 0.00 | 0.00 | 0.00 | 47 | 1019.0 |
| 20260901160513 | 85 | 225 | 7.0 | 12.0 | 0.00 | 0.00 | 0.00 | 49 | 1019.0 |
| 20260901160204 | 85 | 224 | 7.0 | 12.0 | 0.00 | 0.00 | 0.00 | 49 | 1019.0 |
| 20260901155903 | 84 | 229 | 7.0 | 11.0 | 0.00 | 0.00 | 0.00 | 50 | 1019.1 |
| 20260901155123 | 83 | 227 | 6.0 | 11.0 | 0.00 | 0.00 | 0.00 | 52 | 1019.0 |
| 20260901154401 | 82 | 227 | 6.0 | 10.0 | 0.00 | 0.00 | 0.00 | 53 | 1019.3 |
| 20260901153629 | 82 | 226 | 6.0 | 12.0 | 0.00 | 0.00 | 0.00 | 54 | 1019.3 |
| 20260901152907 | 81 | 225 | 7.0 | 12.0 | 0.00 | 0.00 | 0.00 | 55 | 1019.4 |
| 20260901152611 | 81 | 225 | 8.0 | 12.0 | 0.00 | 0.00 | 0.00 | 55 | 1019.4 |
| 20260901152312 | 80 | 226 | 7.0 | 12.0 | 0.00 | 0.00 | 0.00 | 56 | 1019.4 |
| 20260901152014 | 80 | 227 | 7.0 | 12.0 | 0.00 | 0.00 | 0.00 | 56 | 1019.2 |
| 20260901151704 | 80 | 235 | 6.0 | 11.0 | 0.00 | 0.00 | 0.00 | 58 | 1019.3 |
| 20260901151354 | 79 | 237 | 6.0 | 11.0 | 0.00 | 0.00 | 0.00 | 58 | 1019.2 |
| 20260901150631 | 78 | 241 | 6.0 | 10.0 | 0.00 | 0.00 | 0.00 | 60 | 1019.3 |
| 20260901150319 | 78 | 241 | 6.0 | 10.0 | 0.00 | 0.00 | 0.00 | 60 | 1019.3 |
| 20260901150007 | 78 | 241 | 6.0 | 10.0 | 0.00 | 0.00 | 0.00 | 61 | 1019.4 |
| 20260901145701 | 77 | 242 | 7.0 | 10.0 | 0.00 | 0.00 | 0.00 | 62 | 1019.4 |
| 20260901145403 | 77 | 242 | 7.0 | 10.0 | 0.00 | 0.00 | 0.00 | 61 | 1019.5 |
| 20260901145046 | 77 | 244 | 6.0 | 10.0 | 0.00 | 0.00 | 0.00 | 61 | 1019.5 |
| 20260901144738 | 77 | 245 | 6.0 | 10.0 | 0.00 | 0.00 | 0.00 | 62 | 1019.4 |
| 20260901144440 | 77 | 246 | 7.0 | 10.0 | 0.00 | 0.00 | 0.00 | 62 | 1019.4 |
| 20260901144129 | 76 | 246 | 6.0 | 10.0 | 0.00 | 0.00 | 0.00 | 62 | 1019.5 |
| 20260901143830 | 76 | 248 | 6.0 | 10.0 | 0.00 | 0.00 | 0.00 | 63 | 1019.5 |
| 20260901143531 | 76 | 254 | 5.0 | 10.0 | 0.00 | 0.00 | 0.00 | 64 | 1019.4 |
| 20260901142807 | 75 | 258 | 5.0 | 9.0 | 0.00 | 0.00 | 0.00 | 65 | 1019.4 |
| 20260901142508 | 75 | 259 | 5.0 | 9.0 | 0.00 | 0.00 | 0.00 | 65 | 1019.6 |
| 20260901142205 | 75 | 261 | 5.0 | 9.0 | 0.00 | 0.00 | 0.00 | 66 | 1019.4 |
| 20260901141900 | 74 | 261 | 6.0 | 9.0 | 0.00 | 0.00 | 0.00 | 67 | 1019.6 |
| 20260901141550 | 74 | 269 | 5.0 | 9.0 | 0.00 | 0.00 | 0.00 | 67 | 1019.4 |
| 20260901141235 | 73 | 273 | 5.0 | 9.0 | 0.00 | 0.00 | 0.00 | 69 | 1019.4 |
| 20260901140925 | 73 | 290 | 4.0 | 9.0 | 0.00 | 0.00 | 0.00 | 70 | 1019.4 |
| 20260901140151 | 71 | 318 | 4.0 | 8.0 | 0.00 | 0.00 | 0.00 | 75 | 1019.4 |
| 20260901135855 | 70 | 323 | 4.0 | 8.0 | 0.00 | 0.00 | 0.00 | 77 | 1019.4 |
| 20260901135547 | 70 | 324 | 4.0 | 8.0 | 0.00 | 0.00 | 0.00 | 79 | 1019.4 |
| 20260901135233 | 69 | 327 | 3.0 | 6.0 | 0.00 | 0.00 | 0.00 | 82 | 1019.2 |
| 20260901134932 | 68 | 327 | 2.0 | 6.0 | 0.00 | 0.00 | 0.00 | 84 | 1019.4 |
| 20260901134629 | 67 | 327 | 1.0 | 6.0 | 0.00 | 0.00 | 0.00 | 85 | 1019.4 |
| 20260901133441 | 65 | 327 | 0.0 | 1.0 | 0.00 | 0.00 | 0.00 | 87 | 1019.5 |
| 20260901133131 | 65 | 327 | 0.0 | 1.0 | 0.00 | 0.00 | 0.00 | 88 | 1019.5 |
| 20260901132407 | 64 | 327 | 1.0 | 3.0 | 0.00 | 0.00 | 0.00 | 88 | 1019.6 |
| 20260901131649 | 64 | 327 | 1.0 | 3.0 | 0.00 | 0.00 | 0.00 | 89 | 1019.6 |
| 20260901131337 | 63 | 327 | 1.0 | 3.0 | 0.00 | 0.00 | 0.00 | 90 | 1019.7 |
| 20260901130614 | 62 | 327 | 0.0 | 3.0 | 0.00 | 0.00 | 0.00 | 90 | 1019.6 |
| 20260901130302 | 62 | 327 | 1.0 | 3.0 | 0.00 | 0.00 | 0.00 | 90 | 1019.6 |
| 20260901130005 | 62 | 327 | 1.0 | 3.0 | 0.00 | 0.00 | 0.00 | 90 | 1019.5 |
| 20260901125653 | 62 | 327 | 1.0 | 3.0 | 0.00 | 0.00 | 0.00 | 90 | 1019.6 |
| 20260901125354 | 61 | 327 | 2.0 | 4.0 | 0.00 | 0.00 | 0.00 | 90 | 1019.5 |
| 20260901125057 | 61 | 327 | 2.0 | 4.0 | 0.00 | 0.00 | 0.00 | 90 | 1019.5 |
| 20260901124744 | 61 | 327 | 2.0 | 4.0 | 0.00 | 0.00 | 0.00 | 90 | 1019.5 |
| 20260901124436 | 61 | 327 | 3.0 | 4.0 | 0.00 | 0.00 | 0.00 | 90 | 1019.5 |
| 20260901122849 | 61 | 327 | 3.0 | 6.0 | 0.00 | 0.00 | 0.00 | 90 | 1019.5 |
| 20260901122544 | 61 | 327 | 3.0 | 6.0 | 0.00 | 0.00 | 0.00 | 90 | 1019.4 |
| 20260901122242 | 60 | 327 | 3.0 | 6.0 | 0.00 | 0.00 | 0.00 | 89 | 1019.4 |
| 20260901121934 | 60 | 327 | 4.0 | 7.0 | 0.00 | 0.00 | 0.00 | 89 | 1019.4 |
| 20260901121632 | 60 | 327 | 4.0 | 7.0 | 0.00 | 0.00 | 0.00 | 89 | 1019.3 |
| 20260901121330 | 60 | 327 | 4.0 | 7.0 | 0.00 | 0.00 | 0.00 | 89 | 1019.3 |
| 20260901121031 | 60 | 327 | 4.0 | 7.0 | 0.00 | 0.00 | 0.00 | 89 | 1019.2 |
| 20260901120720 | 60 | 327 | 3.0 | 7.0 | 0.00 | 0.00 | 0.00 | 89 | 1019.1 |
| 20260901120421 | 60 | 327 | 2.0 | 7.0 | 0.00 | 0.00 | 0.00 | 88 | 1019.2 |
| 20260901120110 | 60 | 327 | 1.0 | 6.0 | 0.00 | 0.00 | 0.00 | 87 | 1019.1 |
| 20260901115804 | 60 | 327 | 0.0 | 3.0 | 0.00 | 0.00 | 0.00 | 87 | 1019.0 |
| 20260901115455 | 60 | 327 | 0.0 | 3.0 | 0.00 | 0.00 | 0.00 | 87 | 1019.0 |
| 20260901115151 | 60 | 327 | 0.0 | 3.0 | 0.00 | 0.00 | 0.00 | 87 | 1019.0 |
| 20260901114846 | 60 | 327 | 1.0 | 0.0 | 0.00 | 0.00 | 0.00 | 87 | 1019.0 |
| 20260901114534 | 60 | 327 | 1.0 | 4.0 | 0.00 | 0.00 | 0.00 | 86 | 1019.0 |
| 20260901114235 | 61 | 327 | 1.0 | 3.0 | 0.00 | 0.00 | 0.00 | 86 | 1019.0 |
| 20260901113927 | 61 | 327 | 0.0 | 2.0 | 0.00 | 0.00 | 0.00 | 88 | 1018.9 |
| 20260901113624 | 61 | 327 | 0.0 | 2.0 | 0.00 | 0.00 | 0.00 | 87 | 1018.8 |
| 20260901113328 | 60 | 327 | 0.0 | 2.0 | 0.00 | 0.00 | 0.00 | 87 | 1018.9 |
| 20260901113024 | 60 | 327 | 0.0 | 2.0 | 0.00 | 0.00 | 0.00 | 87 | 1018.8 |
| 20260901112710 | 60 | 327 | 0.0 | 0.0 | 0.00 | 0.00 | 0.00 | 86 | 1018.7 |
| 20260901112405 | 60 | 327 | 0.0 | 3.0 | 0.00 | 0.00 | 0.00 | 86 | 1018.8 |
| 20260901112054 | 60 | 327 | 0.0 | 1.0 | 0.00 | 0.00 | 0.00 | 86 | 1018.9 |
| 20260901111321 | 61 | 327 | 0.0 | 2.0 | 0.00 | 0.00 | 0.00 | 86 | 1018.9 |
| 20260901111013 | 61 | 327 | 0.0 | 1.0 | 0.00 | 0.00 | 0.00 | 86 | 1018.8 |
| 20260901110703 | 61 | 327 | 0.0 | 0.0 | 0.00 | 0.00 | 0.00 | 86 | 1018.8 |
| 20260901110355 | 61 | 327 | 1.0 | 0.0 | 0.00 | 0.00 | 0.00 | 86 | 1018.8 |
| 20260901110056 | 61 | 327 | 1.0 | 0.0 | 0.00 | 0.00 | 0.00 | 86 | 1018.8 |
| 20260901105748 | 61 | 327 | 2.0 | 5.0 | 0.00 | 0.00 | 0.00 | 86 | 1018.9 |
| 20260901105441 | 61 | 327 | 2.0 | 4.0 | 0.00 | 0.00 | 0.00 | 86 | 1018.8 |
| 20260901105132 | 61 | 327 | 2.0 | 6.0 | 0.00 | 0.00 | 0.00 | 85 | 1018.7 |
| 20260901104413 | 62 | 327 | 0.0 | 4.0 | 0.00 | 0.00 | 0.00 | 84 | 1018.7 |
| 20260901104117 | 62 | 327 | 0.0 | 1.0 | 0.00 | 0.00 | 0.00 | 85 | 1018.6 |
| 20260901103815 | 62 | 327 | 0.0 | 0.0 | 0.00 | 0.00 | 0.00 | 84 | 1018.5 |
| 20260901103510 | 62 | 327 | 0.0 | 0.0 | 0.00 | 0.00 | 0.00 | 84 | 1018.6 |
| 20260901103201 | 62 | 327 | 0.0 | 0.0 | 0.00 | 0.00 | 0.00 | 83 | 1018.7 |
| 20260901102025 | 63 | 327 | 0.0 | 0.0 | 0.00 | 0.00 | 0.00 | 83 | 1018.6 |
| 20260901100847 | 64 | 327 | 0.0 | 1.0 | 0.00 | 0.00 | 0.00 | 82 | 1018.7 |
| 20260901100544 | 64 | 327 | 0.0 | 1.0 | 0.00 | 0.00 | 0.00 | 82 | 1018.9 |
| 20260901100243 | 64 | 327 | 0.0 | 0.0 | 0.00 | 0.00 | 0.00 | 83 | 1018.9 |
| 20260901095944 | 64 | 327 | 0.0 | 1.0 | 0.00 | 0.00 | 0.00 | 83 | 1018.9 |
| 20260901095634 | 64 | 327 | 0.0 | 1.0 | 0.00 | 0.00 | 0.00 | 82 | 1019.0 |
| 20260901095329 | 64 | 327 | 0.0 | 4.0 | 0.00 | 0.00 | 0.00 | 81 | 1019.0 |
| 20260901095016 | 64 | 327 | 0.0 | 4.0 | 0.00 | 0.00 | 0.00 | 81 | 1019.0 |
| 20260901094717 | 64 | 327 | 0.0 | 2.0 | 0.00 | 0.00 | 0.00 | 82 | 1018.9 |
| 20260901094421 | 64 | 327 | 0.0 | 1.0 | 0.00 | 0.00 | 0.00 | 82 | 1018.9 |
| 20260901094111 | 64 | 327 | 0.0 | 1.0 | 0.00 | 0.00 | 0.00 | 82 | 1019.0 |
| 20260901093812 | 64 | 327 | 0.0 | 0.0 | 0.00 | 0.00 | 0.00 | 82 | 1019.1 |
| 20260901093502 | 64 | 327 | 0.0 | 3.0 | 0.00 | 0.00 | 0.00 | 81 | 1019.0 |
| 20260901093157 | 64 | 327 | 0.0 | 3.0 | 0.00 | 0.00 | 0.00 | 80 | 1019.0 |
| 20260901092845 | 65 | 327 | 0.0 | 2.0 | 0.00 | 0.00 | 0.00 | 80 | 1019.0 |
| 20260901092532 | 65 | 327 | 0.0 | 0.0 | 0.00 | 0.00 | 0.00 | 80 | 1019.0 |
| 20260901092228 | 64 | 327 | 0.0 | 0.0 | 0.00 | 0.00 | 0.00 | 80 | 1018.9 |
| 20260901091917 | 65 | 327 | 0.0 | 0.0 | 0.00 | 0.00 | 0.00 | 79 | 1019.0 |
| 20260901091615 | 65 | 327 | 0.0 | 0.0 | 0.00 | 0.00 | 0.00 | 79 | 1019.0 |
| 20260901091314 | 65 | 327 | 0.0 | 0.0 | 0.00 | 0.00 | 0.00 | 79 | 1019.0 |
| 20260901091017 | 65 | 327 | 0.0 | 1.0 | 0.00 | 0.00 | 0.00 | 78 | 1019.1 |
| 20260901090710 | 65 | 327 | 0.0 | 1.0 | 0.00 | 0.00 | 0.00 | 79 | 1019.0 |
| 20260901090404 | 65 | 327 | 0.0 | 1.0 | 0.00 | 0.00 | 0.00 | 78 | 1019.1 |
| 20260901085339 | 66 | 327 | 0.0 | 0.0 | 0.00 | 0.00 | 0.00 | 77 | 1019.2 |
| 20260901085029 | 66 | 327 | 0.0 | 0.0 | 0.00 | 0.00 | 0.00 | 76 | 1019.2 |
| 20260901084718 | 66 | 327 | 0.0 | 0.0 | 0.00 | 0.00 | 0.00 | 76 | 1019.2 |
| 20260901084419 | 66 | 327 | 0.0 | 0.0 | 0.00 | 0.00 | 0.00 | 76 | 1019.2 |
| 20260901084121 | 67 | 327 | 0.0 | 0.0 | 0.00 | 0.00 | 0.00 | 75 | 1019.2 |
| 20260901083820 | 67 | 327 | 0.0 | 0.0 | 0.00 | 0.00 | 0.00 | 75 | 1019.2 |
| 20260901083511 | 67 | 327 | 0.0 | 4.0 | 0.00 | 0.00 | 0.00 | 75 | 1019.2 |
| 20260901082744 | 67 | 327 | 0.0 | 2.0 | 0.00 | 0.00 | 0.00 | 74 | 1019.4 |
| 20260901082027 | 68 | 327 | 0.0 | 1.0 | 0.00 | 0.00 | 0.00 | 74 | 1019.4 |
| 20260901081721 | 68 | 327 | 0.0 | 1.0 | 0.00 | 0.00 | 0.00 | 74 | 1019.5 |
| 20260901081422 | 68 | 327 | 0.0 | 1.0 | 0.00 | 0.00 | 0.00 | 73 | 1019.5 |
| 20260901081121 | 68 | 327 | 0.0 | 0.0 | 0.00 | 0.00 | 0.00 | 73 | 1019.5 |
| 20260901080822 | 69 | 327 | 1.0 | 4.0 | 0.00 | 0.00 | 0.00 | 73 | 1019.4 |
| 20260901080525 | 69 | 327 | 1.0 | 4.0 | 0.00 | 0.00 | 0.00 | 72 | 1019.4 |
| 20260901080226 | 69 | 327 | 1.0 | 3.0 | 0.00 | 0.00 | 0.00 | 71 | 1019.4 |
| 20260901075914 | 69 | 327 | 0.0 | 3.0 | 0.00 | 0.00 | 0.00 | 70 | 1019.5 |
| 20260901075603 | 70 | 327 | 1.0 | 3.0 | 0.00 | 0.00 | 0.00 | 70 | 1019.6 |
| 20260901075256 | 70 | 327 | 1.0 | 3.0 | 0.00 | 0.00 | 0.00 | 69 | 1019.6 |
| 20260901074951 | 70 | 327 | 0.0 | 3.0 | 0.00 | 0.00 | 0.00 | 69 | 1019.6 |
| 20260901074637 | 70 | 327 | 0.0 | 2.0 | 0.00 | 0.00 | 0.00 | 69 | 1019.7 |
| 20260901074326 | 71 | 327 | 1.0 | 4.0 | 0.00 | 0.00 | 0.00 | 68 | 1019.6 |
| 20260901074029 | 71 | 327 | 1.0 | 4.0 | 0.00 | 0.00 | 0.00 | 68 | 1019.6 |
| 20260901073716 | 71 | 327 | 2.0 | 4.0 | 0.00 | 0.00 | 0.00 | 67 | 1019.6 |
| 20260901072948 | 72 | 327 | 3.0 | 5.0 | 0.00 | 0.00 | 0.00 | 66 | 1019.7 |
| 20260901072642 | 72 | 327 | 3.0 | 5.0 | 0.00 | 0.00 | 0.00 | 66 | 1019.6 |